Location: Az?znagar
(16.8373°N, 80.5091°E)
Time: 03:19:49
(UTC+00:00)

Tiangong - Visible Passes

Search period start: 24 May 2022 00:00
Search period end: 03 June 2022 00:00
Orbit: 386 x 389 km, 41.5° (Epoch: 23 May)

Date Brightness Start Highest point End Pass type
(mag) Time Alt. Az. Time Alt. Az. Time Alt. Az.
24 May 3.8 14:27:56 10° WSW 14:29:07 12° SW 14:30:05 10° SSW visible
25 May 2.9 13:27:39 10° WNW 13:30:23 27° SW 13:33:08 10° SSE visible
01 Jun 3.5 23:02:05 10° S 23:04:08 16° SE 23:06:12 10° E visible
02 Jun 1.2 23:38:22 10° SW 23:41:30 68° NW 23:44:39 10° NE visible
